{"data":{"norad_id":58531,"intl_designator":"2023-192A","name":"STARLINK-31012","alt_names":[],"object_type":"PAYLOAD","status":"ACTIVE","operator":null,"country":"US","launch_date":"2023-12-08","launch_site_code":"AFWTR","launch_vehicle":null,"mission":null,"orbit_class":"UNKNOWN","rcs_meters":null,"size_class":null,"mass_kg":null,"dimensions":null,"purposes":["comms"],"wikipedia_slug":null,"has_3d_model":false,"image_url":null,"decayed_at":null,"tle_current":{"epoch":"2026-09-20T22:25:29.513568Z","epoch_age_seconds":109283,"freshness":"FRESH","line1":"1 58531U 23192A   26263.93436937 -.00000459  00000+0 -24552-5 0  9994","line2":"2 58531  53.1586 233.3401 0001582  89.9827 270.1357 15.34391305155917","mean_motion":15.34391305,"eccentricity":0.0001582,"inclination_deg":53.1586,"raan_deg":233.3401,"arg_perigee_deg":89.9827,"mean_anomaly_deg":270.1357,"bstar":-2.4552e-6,"rev_number":15591,"period_min":93.848289892388,"perigee_km":461.64685868709,"apogee_km":463.81130871597,"semimajor_km":6840.8660837015,"source":"CELESTRAK","updated_at":"2026-09-21T09:00:33.911532Z"}}}